Date String (YYYY-MM-DD hh:mm:ss) UTC,Instrument flags,Ambient pressure (hPa),Sample flow (lpm),Bypass flow (lpm),Sample temperature (°C),Ambient temperature (°C),ASC tube jacket temperature (°C),LED temperature (°C),Box temperature (°C),Sample RH (%),Span deviation,Mass concentration (μg/m³),Mass concentration (μg/m³),Mass concentration (μg/m³)
DateTimeUTC,F1_M11,P_M11,Q1_M11,Q2_M11,T1_M11,T2_M11,T3_M11,T4_M11,T5_M11,U1_M11,ZSPAN_M11,X0_M11,X2_M11,X1_M11
2023-02-13 20:00:00,,0814.1,5.02,0.00,25.2,23.9,00.0,33.9,27.1,08.0,0000.0,0008.22,0004.27,0003.78
2023-02-13 20:01:00,,0813.9,4.98,0.00,25.2,24.0,00.0,33.9,27.1,08.1,0000.0,0008.26,0004.32,0003.83
2023-02-13 20:02:00,,0813.9,5.00,0.00,25.2,24.0,00.0,33.9,27.1,08.1,0000.0,0008.34,0004.36,0003.86
2023-02-13 20:03:00,,0813.9,5.00,0.00,25.2,24.0,00.0,34.0,27.1,08.2,0000.0,0008.48,0004.44,0003.91
2023-02-13 20:04:00,,0813.8,5.00,0.00,25.2,24.0,00.0,34.0,27.1,08.3,0000.0,0008.83,0004.52,0003.94
2023-02-13 20:05:00,,0814.2,4.99,0.00,25.3,24.0,00.0,34.0,27.1,08.4,0000.0,0009.20,0004.52,0003.96
2023-02-13 20:06:00,,0814.0,4.99,0.00,25.3,24.1,00.0,34.0,27.2,08.2,0000.0,0009.76,0004.52,0003.95
2023-02-13 20:07:00,,0813.7,5.01,0.00,25.3,24.1,00.0,34.0,27.2,08.3,0000.0,0009.78,0004.55,0003.94
2023-02-13 20:08:00,,0813.6,4.99,0.00,25.3,24.1,00.0,34.0,27.2,08.2,0000.0,0009.44,0004.53,0003.92
2023-02-13 20:09:00,,0813.5,5.02,0.00,25.3,24.2,00.0,34.0,27.2,08.2,0000.0,0009.33,0004.48,0003.89
2023-02-13 20:10:00,,0813.5,5.02,0.00,25.3,24.2,00.0,34.0,27.2,08.4,0000.0,0009.35,0004.49,0003.90
2023-02-13 20:11:00,,0813.5,5.00,0.00,25.3,24.2,00.0,34.1,27.2,08.2,0000.0,0009.42,0004.50,0003.92
2023-02-13 20:12:00,,0813.4,5.02,0.00,25.4,24.2,00.0,34.1,27.2,08.4,0000.0,0009.44,0004.54,0003.93
2023-02-13 20:13:00,,0813.4,5.04,0.00,25.4,24.2,00.0,34.1,27.2,08.5,0000.0,0009.42,0004.54,0003.96
2023-02-13 20:14:00,,0813.4,4.99,0.00,25.4,24.3,00.0,34.1,27.3,08.3,0000.0,0009.38,0004.54,0003.97
2023-02-13 20:15:00,,0813.4,5.00,0.00,25.4,24.3,00.0,34.1,27.3,08.4,0000.0,0008.99,0004.48,0003.99
2023-02-13 20:16:00,,0813.4,4.98,0.00,25.4,24.3,00.0,34.1,27.3,08.3,0000.0,0008.80,0004.49,0004.01
2023-02-13 20:17:00,,0813.4,5.01,0.00,25.4,24.3,00.0,34.1,27.3,08.3,0000.0,0008.46,0004.49,0004.03
2023-02-13 20:18:00,,0813.3,5.06,0.00,25.5,24.4,00.0,34.2,27.4,08.9,0000.0,0008.42,0004.50,0004.08
2023-02-13 20:19:00,,0813.3,5.00,0.00,25.5,24.4,00.0,34.2,27.4,08.5,0000.0,0008.70,0004.57,0004.16
2023-02-13 20:20:00,,0813.2,4.99,0.00,25.5,24.4,00.0,34.2,27.4,08.7,0000.0,0009.15,0004.65,0004.26
2023-02-13 20:21:00,,0813.2,5.00,0.00,25.5,24.4,00.0,34.2,27.4,08.5,0000.0,0009.26,0004.73,0004.35
2023-02-13 20:22:00,,0813.2,5.03,0.00,25.5,24.4,00.0,34.2,27.4,08.6,0000.0,0009.60,0004.87,0004.44
2023-02-13 20:23:00,,0813.2,5.03,0.00,25.5,24.4,00.0,34.2,27.4,08.5,0000.0,0009.64,0004.93,0004.53
2023-02-13 20:24:00,,0813.2,4.99,0.00,25.6,24.4,00.0,34.3,27.5,08.6,0000.0,0010.72,0005.04,0004.64
2023-02-13 20:25:00,,0813.2,4.99,0.00,25.6,24.4,00.0,34.3,27.5,08.8,0000.0,0011.57,0005.20,0004.77
2023-02-13 20:26:00,,0813.1,5.00,0.00,25.6,24.5,00.0,34.3,27.5,08.7,0000.0,0011.85,0005.32,0004.87
2023-02-13 20:27:00,,0813.1,5.01,0.00,25.6,24.5,00.0,34.3,27.5,08.6,0000.0,0012.01,0005.47,0004.98
2023-02-13 20:28:00,,0813.1,5.02,0.00,25.6,24.5,00.0,34.3,27.5,08.6,0000.0,0012.55,0005.67,0005.11
2023-02-13 20:29:00,,0813.2,5.00,0.00,25.6,24.5,00.0,34.3,27.6,08.4,0000.0,0012.77,0005.79,0005.20
2023-02-13 20:30:00,,0813.0,5.00,0.00,25.6,24.5,00.0,34.4,27.6,08.8,0000.0,0013.02,0005.89,0005.27
2023-02-13 20:31:00,,0813.1,5.00,0.00,25.7,24.5,00.0,34.4,27.6,08.8,0000.0,0012.78,0005.98,0005.32
2023-02-13 20:32:00,,0813.1,5.00,0.00,25.7,24.6,00.0,34.4,27.6,08.7,0000.0,0013.06,0006.10,0005.38
2023-02-13 20:33:00,,0813.1,4.99,0.00,25.7,24.6,00.0,34.4,27.6,08.6,0000.0,0013.44,0006.19,0005.45
2023-02-13 20:34:00,,0812.9,5.00,0.00,25.7,24.6,00.0,34.4,27.6,08.6,0000.0,0014.27,0006.28,0005.52
2023-02-13 20:35:00,,0812.9,5.00,0.00,25.7,24.6,00.0,34.4,27.6,08.6,0000.0,0013.63,0006.34,0005.57
2023-02-13 20:36:00,,0812.8,4.99,0.00,25.7,24.6,00.0,34.4,27.6,08.6,0000.0,0012.89,0006.36,0005.61
2023-02-13 20:37:00,,0812.8,5.00,0.00,25.7,24.6,00.0,34.5,27.6,08.6,0000.0,0012.96,0006.40,0005.65
2023-02-13 20:38:00,,0812.7,5.00,0.00,25.8,24.6,00.0,34.5,27.7,08.7,0000.0,0013.52,0006.40,0005.67
2023-02-13 20:39:00,,0812.7,5.00,0.00,25.8,24.7,00.0,34.5,27.7,08.5,0000.0,0013.67,0006.40,0005.69
2023-02-13 20:40:00,,0812.7,4.98,0.00,25.8,24.7,00.0,34.5,27.7,08.3,0000.0,0013.98,0006.43,0005.73
2023-02-13 20:41:00,,0812.7,5.00,0.00,25.8,24.7,00.0,34.5,27.7,08.4,0000.0,0014.38,0006.43,0005.75
2023-02-13 20:42:00,,0812.6,5.00,0.00,25.8,24.7,00.0,34.5,27.7,08.4,0000.0,0014.43,0006.46,0005.77
2023-02-13 20:43:00,,0812.6,5.01,0.00,25.8,24.7,00.0,34.5,27.7,08.4,0000.0,0014.50,0006.48,0005.78
2023-02-13 20:44:00,,0812.6,5.00,0.00,25.8,24.7,00.0,34.6,27.7,08.4,0000.0,0014.20,0006.45,0005.79
2023-02-13 20:45:00,,0812.7,5.01,0.00,25.9,24.7,00.0,34.6,27.8,08.2,0000.0,0013.53,0006.47,0005.80
2023-02-13 20:46:00,,0812.6,4.99,0.00,25.9,24.7,00.0,34.6,27.8,08.2,0000.0,0013.83,0006.52,0005.82
2023-02-13 20:47:00,,0812.6,4.99,0.00,25.9,24.8,00.0,34.6,27.8,08.4,0000.0,0014.09,0006.53,0005.83
2023-02-13 20:48:00,,0812.6,5.02,0.00,25.9,24.8,00.0,34.6,27.8,08.4,0000.0,0014.67,0006.62,0005.84
2023-02-13 20:49:00,,0812.6,4.99,0.00,25.9,24.8,00.0,34.6,27.8,08.4,0000.0,0014.62,0006.66,0005.85
2023-02-13 20:50:00,,0812.5,5.00,0.00,25.9,24.8,00.0,34.6,27.8,08.5,0000.0,0014.78,0006.62,0005.80
2023-02-13 20:51:00,,0812.5,5.01,0.00,26.0,24.8,00.0,34.6,27.9,08.6,0000.0,0015.23,0006.57,0005.71
2023-02-13 20:52:00,,0812.5,5.01,0.00,26.0,24.8,00.0,34.7,27.9,08.5,0000.0,0015.50,0006.53,0005.60
2023-02-13 20:53:00,,0812.5,5.00,0.00,26.0,24.8,00.0,34.7,27.9,08.9,0000.0,0015.72,0006.47,0005.51
2023-02-13 20:54:00,,0812.5,4.99,0.00,26.0,24.8,00.0,34.7,27.9,08.7,0000.0,0015.95,0006.38,0005.43
2023-02-13 20:55:00,,0812.5,5.01,0.00,26.0,24.8,00.0,34.7,27.9,08.5,0000.0,0016.06,0006.33,0005.32
2023-02-13 20:56:00,,0812.5,5.00,0.00,26.0,24.8,00.0,34.7,27.9,08.3,0000.0,0017.28,0006.23,0005.21
2023-02-13 20:57:00,,0812.5,4.99,0.00,26.0,24.8,00.0,34.7,27.9,08.2,0000.0,0017.97,0006.10,0005.08
2023-02-13 20:58:00,,0812.5,5.00,0.00,26.0,24.8,00.0,34.7,27.9,08.3,0000.0,0017.76,0006.02,0004.98
2023-02-13 20:59:00,,0812.5,4.99,0.00,26.0,24.8,00.0,34.7,27.9,07.9,0000.0,0017.44,0005.88,0004.86
